User: anonymous   Login
Location: Fort Wayne
(41.1310°N, 85.1290°W)
Time: 19:25:41
(UTC-04:00)
Language:

Iridium 37 - Orbit

View from above orbital plane
View from above orbital plane
View from above satellite
View from above satellite

Ground track
Ground track

The orbit data is extracted from the following two-line orbital elements,

1 24968U 97056D   17229.64553295  .00000126  00000-0  38036-4 0  9999
2 24968  86.3959 293.1877 0002226  93.2859 266.8592 14.34222221 41349
Epoch (UTC): 17 August 2017 15:29:34
Eccentricity: 0.0002226
inclination: 86.3959°
perigee height: 776 km
apogee height: 779 km
right ascension of ascending node: 293.1877°
argument of perigee: 93.2859°
revolutions per day: 14.34222221
mean anomaly at epoch: 266.8592°
orbit number at epoch: 4134

The dashed part of the orbit path shows where the satellite is in the earth's shadow,  

DLR